N184TR TJSJ-KNBC

Flight info

Callsign N184TR
Flight time 2h 59m
Altitude 40000
Route ACONY3 SAPPO Y280 JSTIN L453 FARMN Y185 COUKY/N0490F410 L450 IORIO G504 LETON/M086F400 L451 JAINS/N0494F400 AR12 DEDDY
Aircraft C750/M-SBDE3FGHRWXY/S

Departure

Time 2026-05-03 21:23
Airport Luis Munoz Marin International Airport (TJSJ)

Arrival

Time 2026-05-04 00:22
Airport Beaufort MCAS - Merritt Field (KNBC)
Time Latitude Longitude Altitude Speed Heading
2026-05-03 21:01 18.44161 -65.99875 14 ft 0 kts 251°
2026-05-03 21:16 18.44161 -65.99876 14 ft 0 kts 255°
2026-05-03 21:16 18.44165 -65.99889 14 ft 5 kts 297°
2026-05-03 21:16 18.44206 -65.99913 14 ft 8 kts 335°
2026-05-03 21:16 18.44253 -65.99932 14 ft 7 kts 339°
2026-05-03 21:17 18.44262 -65.99959 14 ft 3 kts 245°
2026-05-03 21:17 18.44256 -65.99973 14 ft 3 kts 245°
2026-05-03 21:17 18.44238 -66.00019 14 ft 7 kts 247°
2026-05-03 21:17 18.44215 -66.00077 14 ft 10 kts 247°
2026-05-03 21:18 18.44184 -66.00153 14 ft 13 kts 247°
2026-05-03 21:18 18.44212 -66.00223 14 ft 13 kts 336°
2026-05-03 21:18 18.44243 -66.00289 14 ft 12 kts 247°
2026-05-03 21:18 18.44210 -66.00373 14 ft 13 kts 248°
2026-05-03 21:19 18.44173 -66.00462 14 ft 14 kts 240°
2026-05-03 21:19 18.44110 -66.00543 14 ft 15 kts 236°
2026-05-03 21:19 18.44067 -66.00643 14 ft 15 kts 246°
2026-05-03 21:19 18.44023 -66.00750 14 ft 16 kts 246°
2026-05-03 21:20 18.43977 -66.00861 14 ft 17 kts 247°
2026-05-03 21:20 18.43929 -66.00978 14 ft 18 kts 246°
2026-05-03 21:20 18.43880 -66.01099 14 ft 18 kts 246°
2026-05-03 21:20 18.43837 -66.01228 14 ft 19 kts 249°
2026-05-03 21:21 18.43809 -66.01350 14 ft 12 kts 272°
2026-05-03 21:21 18.43785 -66.01423 14 ft 10 kts 247°
2026-05-03 21:21 18.43760 -66.01484 13 ft 8 kts 249°
2026-05-03 21:21 18.43766 -66.01536 14 ft 7 kts 311°
2026-05-03 21:22 18.43807 -66.01567 14 ft 8 kts 334°
2026-05-03 21:22 18.43851 -66.01550 14 ft 8 kts 62°
2026-05-03 21:22 18.43897 -66.01435 14 ft 44 kts 67°
2026-05-03 21:22 18.44146 -66.00815 16 ft 129 kts 67°
2026-05-03 21:23 18.44506 -65.99931 571 ft 131 kts 70°
2026-05-03 21:23 18.45110 -65.99202 1017 ft 151 kts 25°
2026-05-03 21:23 18.46250 -65.99213 1281 ft 178 kts 346°
2026-05-03 21:23 18.47384 -65.99762 1881 ft 182 kts 335°
2026-05-03 21:24 18.48541 -66.00371 2427 ft 190 kts 336°
2026-05-03 21:24 18.49761 -66.00995 2995 ft 201 kts 336°
2026-05-03 21:24 18.51057 -66.01658 3542 ft 213 kts 335°
2026-05-03 21:24 18.52240 -66.02694 4036 ft 232 kts 310°
2026-05-03 21:25 18.53270 -66.04075 4573 ft 248 kts 308°
2026-05-03 21:25 18.54429 -66.05495 5108 ft 263 kts 313°
2026-05-03 21:25 18.55745 -66.06907 5632 ft 277 kts 315°
2026-05-03 21:25 18.57115 -66.08366 6149 ft 282 kts 314°
2026-05-03 21:26 18.58494 -66.09895 6654 ft 289 kts 313°
2026-05-03 21:26 18.59870 -66.11428 7115 ft 291 kts 314°
2026-05-03 21:26 18.61270 -66.12968 7585 ft 291 kts 314°
2026-05-03 21:26 18.62664 -66.14500 8062 ft 292 kts 314°
2026-05-03 21:27 18.64075 -66.16054 8544 ft 296 kts 314°
2026-05-03 21:27 18.65500 -66.17629 9047 ft 294 kts 314°
2026-05-03 21:27 18.66924 -66.19200 9535 ft 300 kts 314°
2026-05-03 21:27 18.68365 -66.20789 10030 ft 300 kts 314°
2026-05-03 21:28 18.69826 -66.22403 10495 ft 310 kts 313°
2026-05-03 21:28 18.71342 -66.24076 10972 ft 321 kts 313°
2026-05-03 21:28 18.72906 -66.25802 11456 ft 330 kts 313°
2026-05-03 21:28 18.74515 -66.27580 11951 ft 339 kts 313°
2026-05-03 21:29 18.76163 -66.29401 12445 ft 347 kts 313°
2026-05-03 21:29 18.77848 -66.31264 12944 ft 354 kts 313°
2026-05-03 21:29 18.79565 -66.33162 13459 ft 361 kts 313°
2026-05-03 21:29 18.81288 -66.35068 13951 ft 366 kts 313°
2026-05-03 21:30 18.83082 -66.37052 14413 ft 370 kts 312°
2026-05-03 21:30 18.84865 -66.39025 14870 ft 374 kts 313°
2026-05-03 21:30 18.86646 -66.40995 15331 ft 377 kts 312°
2026-05-03 21:30 18.88449 -66.42991 15802 ft 374 kts 311°
2026-05-03 21:31 18.90249 -66.44986 16292 ft 375 kts 311°
2026-05-03 21:31 18.92055 -66.46988 16778 ft 378 kts 311°
2026-05-03 21:31 18.93931 -66.48948 17268 ft 382 kts 314°
2026-05-03 21:31 18.95865 -66.50891 17770 ft 386 kts 314°
2026-05-03 21:32 18.97803 -66.52874 18277 ft 390 kts 313°
2026-05-03 21:32 18.99763 -66.54874 18729 ft 394 kts 314°
2026-05-03 21:32 19.01753 -66.56884 19178 ft 397 kts 314°
2026-05-03 21:32 19.03753 -66.58905 19639 ft 399 kts 314°
2026-05-03 21:33 19.05759 -66.60945 20097 ft 400 kts 314°
2026-05-03 21:33 19.07759 -66.63003 20558 ft 400 kts 312°
2026-05-03 21:33 19.09549 -66.65262 21022 ft 401 kts 307°
2026-05-03 21:33 19.11316 -66.67565 21502 ft 406 kts 308°
2026-05-03 21:34 19.13126 -66.69871 21997 ft 409 kts 309°
2026-05-03 21:34 19.14954 -66.72197 22497 ft 413 kts 309°
2026-05-03 21:34 19.16785 -66.74557 23005 ft 417 kts 309°
2026-05-03 21:34 19.18635 -66.76946 23528 ft 421 kts 310°
2026-05-03 21:35 19.20504 -66.79347 23972 ft 425 kts 310°
2026-05-03 21:35 19.22395 -66.81771 24412 ft 429 kts 310°
2026-05-03 21:35 19.24297 -66.84219 24860 ft 432 kts 309°
2026-05-03 21:35 19.26209 -66.86686 25314 ft 435 kts 309°
2026-05-03 21:36 19.28139 -66.89172 25776 ft 438 kts 309°
2026-05-03 21:36 19.30081 -66.91671 26242 ft 441 kts 309°
2026-05-03 21:36 19.32033 -66.94187 26719 ft 444 kts 309°
2026-05-03 21:36 19.33996 -66.96720 27209 ft 446 kts 309°
2026-05-03 21:37 19.35969 -66.99265 27709 ft 448 kts 309°
2026-05-03 21:37 19.37951 -67.01821 28205 ft 450 kts 309°
2026-05-03 21:37 19.39938 -67.04387 28715 ft 452 kts 309°
2026-05-03 21:37 19.41934 -67.06966 29233 ft 453 kts 309°
2026-05-03 21:38 19.43931 -67.09547 29764 ft 454 kts 309°
2026-05-03 21:38 19.45935 -67.12137 30269 ft 454 kts 309°
2026-05-03 21:38 19.47939 -67.14728 30724 ft 455 kts 309°
2026-05-03 21:38 19.49943 -67.17321 31187 ft 454 kts 309°
2026-05-03 21:39 19.51942 -67.19909 31658 ft 454 kts 308°
2026-05-03 21:39 19.53941 -67.22497 32134 ft 453 kts 308°
2026-05-03 21:39 19.55931 -67.25075 32618 ft 451 kts 308°
2026-05-03 21:39 19.57913 -67.27643 33112 ft 450 kts 308°
2026-05-03 21:40 19.59891 -67.30209 33621 ft 449 kts 308°
2026-05-03 21:40 19.61867 -67.32772 34118 ft 448 kts 308°
2026-05-03 21:40 19.63834 -67.35325 34565 ft 447 kts 308°
2026-05-03 21:40 19.65796 -67.37872 35018 ft 445 kts 308°
2026-05-03 21:41 19.67752 -67.40412 35488 ft 444 kts 309°
2026-05-03 21:41 19.69699 -67.42942 35961 ft 442 kts 309°
2026-05-03 21:41 19.71639 -67.45464 36440 ft 440 kts 309°
2026-05-03 21:41 19.73569 -67.47974 36930 ft 438 kts 309°
2026-05-03 21:42 19.75491 -67.50475 37428 ft 436 kts 309°
2026-05-03 21:42 19.77403 -67.52964 37941 ft 434 kts 309°
2026-05-03 21:42 19.79305 -67.55440 38467 ft 431 kts 309°
2026-05-03 21:42 19.81194 -67.57901 38951 ft 429 kts 309°
2026-05-03 21:43 19.83072 -67.60349 39401 ft 426 kts 309°
2026-05-03 21:43 19.84939 -67.62783 39863 ft 423 kts 309°
2026-05-03 21:43 19.86791 -67.65198 40335 ft 420 kts 308°
2026-05-03 21:43 19.88626 -67.67592 40813 ft 416 kts 308°
2026-05-03 21:44 19.90442 -67.69963 41306 ft 412 kts 308°
2026-05-03 21:44 19.91635 -67.71521 41640 ft 409 kts 308°
2026-05-03 21:44 19.93418 -67.73850 42146 ft 404 kts 308°
2026-05-03 21:44 19.95178 -67.76150 42668 ft 398 kts 308°
2026-05-03 21:45 19.96912 -67.78416 43198 ft 392 kts 308°
2026-05-03 21:45 19.98612 -67.80640 43737 ft 384 kts 308°
2026-05-03 21:45 20.00276 -67.82816 44284 ft 375 kts 308°
2026-05-03 21:45 20.01901 -67.84943 44809 ft 366 kts 308°
2026-05-03 21:46 20.03483 -67.87013 45243 ft 356 kts 308°
2026-05-03 21:46 20.05022 -67.89029 45672 ft 346 kts 308°
2026-05-03 21:46 20.06519 -67.90990 46095 ft 336 kts 308°
2026-05-03 21:46 20.07970 -67.92891 46510 ft 326 kts 307°
2026-05-03 21:47 20.09373 -67.94731 46887 ft 316 kts 307°
2026-05-03 21:47 20.10747 -67.96533 47027 ft 315 kts 307°
2026-05-03 21:47 20.13530 -68.00186 47033 ft 321 kts 307°
2026-05-03 21:48 20.16367 -68.03910 47050 ft 327 kts 307°
2026-05-03 21:48 20.19296 -68.07759 46640 ft 347 kts 307°
2026-05-03 21:49 20.20846 -68.09797 46309 ft 361 kts 308°
2026-05-03 21:49 20.22454 -68.11911 45984 ft 374 kts 308°
2026-05-03 21:49 20.24120 -68.14102 45658 ft 387 kts 308°
2026-05-03 21:49 20.25838 -68.16362 45338 ft 396 kts 308°
2026-05-03 21:50 20.27577 -68.18650 44994 ft 399 kts 308°
2026-05-03 21:50 20.29324 -68.20950 44614 ft 399 kts 307°
2026-05-03 21:50 20.31047 -68.23221 44162 ft 400 kts 308°
2026-05-03 21:50 20.32798 -68.25528 43707 ft 402 kts 308°
2026-05-03 21:51 20.34584 -68.27883 43256 ft 404 kts 308°
2026-05-03 21:51 20.36341 -68.30200 43035 ft 398 kts 308°
2026-05-03 21:51 20.39812 -68.34782 43035 ft 400 kts 308°
2026-05-03 21:52 20.43307 -68.39403 43041 ft 403 kts 307°
2026-05-03 21:52 20.46350 -68.44416 43033 ft 403 kts 302°
2026-05-03 21:53 20.49346 -68.49459 43027 ft 403 kts 302°
2026-05-03 21:53 20.52314 -68.54526 43035 ft 403 kts 301°
2026-05-03 21:54 20.55294 -68.59584 43031 ft 403 kts 301°
2026-05-03 21:54 20.58263 -68.64645 43033 ft 402 kts 301°
2026-05-03 21:55 20.61237 -68.69710 43029 ft 402 kts 301°
2026-05-03 21:55 20.64205 -68.74775 43029 ft 402 kts 301°
2026-05-03 21:56 20.67176 -68.79845 43038 ft 403 kts 301°
2026-05-03 21:56 20.70143 -68.84915 43037 ft 400 kts 301°
2026-05-03 21:57 20.73082 -68.89943 43033 ft 404 kts 301°
2026-05-03 21:57 20.76101 -68.95111 43046 ft 416 kts 301°
2026-05-03 21:58 20.79203 -69.00426 43059 ft 427 kts 301°
2026-05-03 21:58 20.82384 -69.05881 43038 ft 437 kts 301°
2026-05-03 21:59 20.85632 -69.11456 43039 ft 446 kts 301°
2026-05-03 21:59 20.88930 -69.17123 43042 ft 452 kts 301°
2026-05-03 22:00 20.92264 -69.22858 43046 ft 456 kts 301°
2026-05-03 22:00 20.95622 -69.28640 43041 ft 458 kts 301°
2026-05-03 22:01 20.98985 -69.34437 43036 ft 459 kts 301°
2026-05-03 22:01 21.02347 -69.40238 43034 ft 459 kts 301°
2026-05-03 22:02 21.05686 -69.46006 43041 ft 459 kts 301°
2026-05-03 22:02 21.09044 -69.51812 43042 ft 459 kts 301°
2026-05-03 22:03 21.12400 -69.57621 43037 ft 459 kts 301°
2026-05-03 22:03 21.15755 -69.63435 43030 ft 459 kts 301°
2026-05-03 22:04 21.19162 -69.69211 43037 ft 459 kts 304°
2026-05-03 22:04 21.23586 -69.74158 43026 ft 463 kts 318°
2026-05-03 22:05 21.29134 -69.77735 43025 ft 471 kts 333°
2026-05-03 22:05 21.35495 -69.79631 43022 ft 481 kts 347°
2026-05-03 22:06 21.42201 -69.80179 43039 ft 484 kts 351°
2026-05-03 22:06 21.48913 -69.80696 43047 ft 484 kts 351°
2026-05-03 22:07 21.55637 -69.81195 43045 ft 485 kts 351°
2026-05-03 22:07 21.62367 -69.81707 43039 ft 485 kts 351°
2026-05-03 22:08 21.69103 -69.82213 43042 ft 485 kts 351°
2026-05-03 22:08 21.75836 -69.82723 43045 ft 485 kts 351°
2026-05-03 22:09 21.82568 -69.83231 43049 ft 485 kts 351°
2026-05-03 22:10 21.92610 -69.84368 43035 ft 479 kts 341°
2026-05-03 22:10 21.98716 -69.86997 43041 ft 470 kts 327°
2026-05-03 22:11 22.03868 -69.91224 43048 ft 464 kts 312°
2026-05-03 22:11 22.07969 -69.96552 43049 ft 461 kts 306°
2026-05-03 22:12 22.11928 -70.01943 43046 ft 462 kts 306°
2026-05-03 22:12 22.15919 -70.07421 43050 ft 461 kts 306°
2026-05-03 22:13 22.19866 -70.12823 43043 ft 461 kts 306°
2026-05-03 22:13 22.23829 -70.18265 43039 ft 461 kts 306°
2026-05-03 22:14 22.27792 -70.23704 43045 ft 460 kts 306°
2026-05-03 22:14 22.31748 -70.29144 43045 ft 460 kts 306°
2026-05-03 22:15 22.35702 -70.34584 43043 ft 460 kts 306°
2026-05-03 22:15 22.39653 -70.40029 43044 ft 460 kts 306°
2026-05-03 22:16 22.43605 -70.45477 43045 ft 460 kts 306°
2026-05-03 22:16 22.47555 -70.50930 43043 ft 460 kts 306°
2026-05-03 22:17 22.51498 -70.56378 43049 ft 460 kts 306°
2026-05-03 22:17 22.55435 -70.61824 43046 ft 459 kts 305°
2026-05-03 22:18 22.59360 -70.67259 43048 ft 458 kts 305°
2026-05-03 22:18 22.63284 -70.72699 43047 ft 458 kts 305°
2026-05-03 22:19 22.67207 -70.78142 43047 ft 458 kts 305°
2026-05-03 22:19 22.71109 -70.83601 43050 ft 458 kts 304°
2026-05-03 22:20 22.74923 -70.89131 43051 ft 458 kts 304°
2026-05-03 22:20 22.78780 -70.94614 43050 ft 458 kts 304°
2026-05-03 22:21 22.82609 -71.00127 43050 ft 458 kts 304°
2026-05-03 22:21 22.86449 -71.05627 43051 ft 458 kts 304°
2026-05-03 22:22 22.90280 -71.11139 43053 ft 458 kts 304°
2026-05-03 22:22 22.94102 -71.16632 43046 ft 455 kts 304°
2026-05-03 22:23 22.97911 -71.22121 43043 ft 455 kts 304°
2026-05-03 22:23 23.01697 -71.27576 43048 ft 455 kts 304°
2026-05-03 22:24 23.05504 -71.33071 43049 ft 455 kts 304°
2026-05-03 22:24 23.09312 -71.38571 43050 ft 455 kts 304°
2026-05-03 22:25 23.13114 -71.44070 43050 ft 455 kts 304°
2026-05-03 22:25 23.16916 -71.49574 43049 ft 455 kts 304°
2026-05-03 22:26 23.20716 -71.55081 43054 ft 455 kts 304°
2026-05-03 22:26 23.24516 -71.60593 43055 ft 456 kts 303°
2026-05-03 22:27 23.28313 -71.66108 43072 ft 456 kts 303°
2026-05-03 22:27 23.32362 -71.71400 43041 ft 459 kts 311°
2026-05-03 22:28 23.37529 -71.75582 43038 ft 469 kts 325°
2026-05-03 22:28 23.43652 -71.78260 43046 ft 482 kts 339°
2026-05-03 22:29 23.50355 -71.79352 43054 ft 490 kts 347°
2026-05-03 22:29 23.57130 -71.80213 43064 ft 490 kts 347°
2026-05-03 22:30 23.63899 -71.81069 43060 ft 489 kts 346°
2026-05-03 22:30 23.70648 -71.82014 43063 ft 489 kts 346°
2026-05-03 22:31 23.77363 -71.82906 43060 ft 489 kts 346°
2026-05-03 22:31 23.84119 -71.83832 43059 ft 489 kts 346°
2026-05-03 22:32 23.90880 -71.84745 43069 ft 489 kts 346°
2026-05-03 22:32 23.97641 -71.85667 43053 ft 490 kts 346°
2026-05-03 22:33 24.03313 -71.86438 43054 ft 490 kts 346°
2026-05-03 22:33 24.10032 -71.87352 43057 ft 490 kts 346°
2026-05-03 22:34 24.16804 -71.88255 43052 ft 490 kts 346°
2026-05-03 22:34 24.23574 -71.89156 43061 ft 491 kts 346°
2026-05-03 22:35 24.30354 -71.90062 43052 ft 491 kts 346°
2026-05-03 22:35 24.37135 -71.90966 43054 ft 491 kts 346°
2026-05-03 22:36 24.43906 -71.91873 43062 ft 490 kts 346°
2026-05-03 22:36 24.50679 -71.92778 43058 ft 490 kts 346°
2026-05-03 22:37 24.57455 -71.93688 43061 ft 491 kts 346°
2026-05-03 22:37 24.64229 -71.94595 43063 ft 490 kts 346°
2026-05-03 22:38 24.71007 -71.95506 43058 ft 491 kts 346°
2026-05-03 22:38 24.77785 -71.96417 43066 ft 491 kts 346°
2026-05-03 22:39 24.84561 -71.97329 43072 ft 491 kts 346°
2026-05-03 22:39 24.91346 -71.98244 43057 ft 491 kts 346°
2026-05-03 22:40 24.98068 -71.99378 43047 ft 483 kts 338°
2026-05-03 22:40 25.04201 -72.02080 43049 ft 469 kts 324°
2026-05-03 22:41 25.09844 -72.05679 43061 ft 469 kts 324°
2026-05-03 22:41 25.15494 -72.09263 43076 ft 468 kts 323°
2026-05-03 22:42 25.21128 -72.12864 43053 ft 468 kts 323°
2026-05-03 22:42 25.26766 -72.16457 43052 ft 468 kts 323°
2026-05-03 22:43 25.32401 -72.20061 43054 ft 468 kts 323°
2026-05-03 22:43 25.38032 -72.23661 43054 ft 468 kts 323°
2026-05-03 22:44 25.43664 -72.27268 43057 ft 467 kts 323°
2026-05-03 22:44 25.49289 -72.30874 43051 ft 468 kts 323°
2026-05-03 22:45 25.54915 -72.34484 43051 ft 468 kts 323°
2026-05-03 22:45 25.60546 -72.38101 43052 ft 467 kts 323°
2026-05-03 22:46 25.66168 -72.41717 43053 ft 467 kts 323°
2026-05-03 22:46 25.71794 -72.45340 43050 ft 467 kts 323°
2026-05-03 22:47 25.77416 -72.48963 43053 ft 467 kts 323°
2026-05-03 22:47 25.83034 -72.52588 43052 ft 466 kts 322°
2026-05-03 22:48 25.88644 -72.56213 43050 ft 466 kts 322°
2026-05-03 22:48 25.94250 -72.59838 43053 ft 466 kts 322°
2026-05-03 22:49 25.99846 -72.63461 43043 ft 465 kts 322°
2026-05-03 22:49 26.05438 -72.67086 43036 ft 465 kts 322°
2026-05-03 22:50 26.10991 -72.70689 43037 ft 465 kts 322°
2026-05-03 22:50 26.16554 -72.74301 43045 ft 463 kts 322°
2026-05-03 22:51 26.22111 -72.77917 43040 ft 463 kts 322°
2026-05-03 22:51 26.27668 -72.81534 43048 ft 462 kts 322°
2026-05-03 22:52 26.33222 -72.85154 43054 ft 463 kts 322°
2026-05-03 22:52 26.38778 -72.88779 43052 ft 463 kts 322°
2026-05-03 22:53 26.44331 -72.92407 43050 ft 462 kts 321°
2026-05-03 22:53 26.49854 -72.96019 43052 ft 460 kts 321°
2026-05-03 22:54 26.55414 -72.99663 43053 ft 461 kts 321°
2026-05-03 22:54 26.60944 -73.03285 43053 ft 461 kts 321°
2026-05-03 22:55 26.66472 -73.06915 43057 ft 461 kts 321°
2026-05-03 22:55 26.71961 -73.10519 43057 ft 461 kts 321°
2026-05-03 22:56 26.77490 -73.14157 43053 ft 461 kts 321°
2026-05-03 22:56 26.83011 -73.17793 43057 ft 461 kts 321°
2026-05-03 22:57 26.88534 -73.21434 43059 ft 461 kts 321°
2026-05-03 22:57 26.94058 -73.25080 43058 ft 461 kts 321°
2026-05-03 22:58 26.99586 -73.28732 43043 ft 461 kts 321°
2026-05-03 22:58 27.05112 -73.32386 43048 ft 462 kts 321°
2026-05-03 22:59 27.10656 -73.36055 43050 ft 462 kts 321°
2026-05-03 22:59 27.16191 -73.39727 43048 ft 462 kts 321°
2026-05-03 23:00 27.21728 -73.43401 43047 ft 462 kts 321°
2026-05-03 23:00 27.27265 -73.47081 43046 ft 462 kts 321°
2026-05-03 23:01 27.32801 -73.50764 43052 ft 462 kts 321°
2026-05-03 23:01 27.38336 -73.54451 43078 ft 462 kts 321°
2026-05-03 23:02 27.43855 -73.58132 43057 ft 461 kts 321°
2026-05-03 23:02 27.49378 -73.61820 43057 ft 461 kts 321°
2026-05-03 23:03 27.54898 -73.65510 43084 ft 461 kts 320°
2026-05-03 23:03 27.60415 -73.69202 43060 ft 461 kts 320°
2026-05-03 23:04 27.65935 -73.72901 43062 ft 461 kts 320°
2026-05-03 23:04 27.71446 -73.76596 43060 ft 458 kts 320°
2026-05-03 23:05 27.76914 -73.80273 43059 ft 458 kts 320°
2026-05-03 23:05 27.82398 -73.83957 43061 ft 458 kts 320°
2026-05-03 23:06 27.87841 -73.87623 43068 ft 458 kts 320°
2026-05-03 23:06 27.93316 -73.91313 43078 ft 458 kts 320°
2026-05-03 23:07 27.98795 -73.95011 43077 ft 458 kts 320°
2026-05-03 23:07 28.04267 -73.98707 43070 ft 457 kts 320°
2026-05-03 23:08 28.09732 -74.02407 43080 ft 458 kts 320°
2026-05-03 23:08 28.15200 -74.06108 43078 ft 458 kts 320°
2026-05-03 23:09 28.20668 -74.09817 43085 ft 458 kts 320°
2026-05-03 23:09 28.25971 -74.13723 43075 ft 449 kts 313°
2026-05-03 23:10 28.30881 -74.18106 43084 ft 449 kts 313°
2026-05-03 23:10 28.35795 -74.22459 43084 ft 447 kts 313°
2026-05-03 23:11 28.40686 -74.26831 43082 ft 448 kts 313°
2026-05-03 23:11 28.45585 -74.31192 43082 ft 447 kts 313°
2026-05-03 23:12 28.50479 -74.35568 43076 ft 447 kts 313°
2026-05-03 23:12 28.55355 -74.39922 43093 ft 445 kts 313°
2026-05-03 23:13 28.60227 -74.44288 43090 ft 446 kts 313°
2026-05-03 23:13 28.65093 -74.48648 43090 ft 443 kts 312°
2026-05-03 23:14 28.69911 -74.52977 43101 ft 442 kts 312°
2026-05-03 23:14 28.74736 -74.57312 43104 ft 442 kts 311°
2026-05-03 23:15 28.79564 -74.61666 43103 ft 442 kts 311°
2026-05-03 23:15 28.84357 -74.65982 43101 ft 442 kts 311°
2026-05-03 23:16 28.89178 -74.70335 43096 ft 442 kts 311°
2026-05-03 23:16 28.94005 -74.74691 43095 ft 442 kts 311°
2026-05-03 23:17 28.98812 -74.79036 43097 ft 440 kts 310°
2026-05-03 23:17 29.02831 -74.82676 43095 ft 440 kts 310°
2026-05-03 23:18 29.07631 -74.87023 43096 ft 440 kts 310°
2026-05-03 23:18 29.12428 -74.91376 43095 ft 440 kts 310°
2026-05-03 23:19 29.17219 -74.95728 43102 ft 440 kts 310°
2026-05-03 23:19 29.22025 -75.00075 43105 ft 440 kts 311°
2026-05-03 23:20 29.26804 -75.04448 43128 ft 440 kts 310°
2026-05-03 23:20 29.31610 -75.08824 43106 ft 443 kts 309°
2026-05-03 23:21 29.36399 -75.13195 43110 ft 443 kts 309°
2026-05-03 23:21 29.41215 -75.17599 43106 ft 443 kts 309°
2026-05-03 23:22 29.48447 -75.24205 43105 ft 443 kts 310°
2026-05-03 23:22 29.53264 -75.28619 43106 ft 443 kts 310°
2026-05-03 23:23 29.58077 -75.33038 43157 ft 443 kts 310°
2026-05-03 23:23 29.62912 -75.37482 43111 ft 446 kts 310°
2026-05-03 23:24 29.67758 -75.41941 43117 ft 446 kts 310°
2026-05-03 23:24 29.72612 -75.46414 43117 ft 447 kts 310°
2026-05-03 23:25 29.77466 -75.50891 43128 ft 447 kts 310°
2026-05-03 23:25 29.82318 -75.55372 43119 ft 447 kts 310°
2026-05-03 23:26 29.87168 -75.59858 43123 ft 447 kts 309°
2026-05-03 23:26 29.92015 -75.64348 43124 ft 447 kts 309°
2026-05-03 23:27 29.96862 -75.68843 43125 ft 447 kts 309°
2026-05-03 23:27 30.01712 -75.73346 43125 ft 447 kts 309°
2026-05-03 23:28 30.06555 -75.77848 43126 ft 447 kts 309°
2026-05-03 23:28 30.11397 -75.82357 43119 ft 447 kts 309°
2026-05-03 23:29 30.16243 -75.86873 43123 ft 447 kts 309°
2026-05-03 23:29 30.21084 -75.91393 43126 ft 448 kts 309°
2026-05-03 23:30 30.25901 -75.95893 43128 ft 448 kts 309°
2026-05-03 23:30 30.30749 -76.00430 43128 ft 448 kts 309°
2026-05-03 23:31 30.35596 -76.04972 43128 ft 448 kts 309°
2026-05-03 23:31 30.40437 -76.09513 43128 ft 448 kts 309°
2026-05-03 23:32 30.45280 -76.14063 43136 ft 448 kts 309°
2026-05-03 23:32 30.50128 -76.18625 43131 ft 449 kts 309°
2026-05-03 23:33 30.54982 -76.23196 43132 ft 450 kts 309°
2026-05-03 23:33 30.59839 -76.27778 43132 ft 450 kts 309°
2026-05-03 23:34 30.64689 -76.32358 43137 ft 450 kts 309°
2026-05-03 23:34 30.69540 -76.36946 43136 ft 450 kts 309°
2026-05-03 23:35 30.74388 -76.41537 43137 ft 449 kts 309°
2026-05-03 23:35 30.79233 -76.46132 43137 ft 449 kts 309°
2026-05-03 23:36 30.84083 -76.50739 43163 ft 451 kts 308°
2026-05-03 23:36 30.88956 -76.55372 43141 ft 452 kts 309°
2026-05-03 23:37 30.93827 -76.60008 43142 ft 452 kts 308°
2026-05-03 23:37 30.98698 -76.64652 43142 ft 452 kts 308°
2026-05-03 23:38 31.03566 -76.69300 43143 ft 452 kts 308°
2026-05-03 23:38 31.08434 -76.73954 43146 ft 452 kts 308°
2026-05-03 23:39 31.13301 -76.78616 43142 ft 454 kts 308°
2026-05-03 23:39 31.18183 -76.83293 43140 ft 454 kts 308°
2026-05-03 23:40 31.23066 -76.87983 43140 ft 456 kts 308°
2026-05-03 23:40 31.27933 -76.92660 43144 ft 456 kts 308°
2026-05-03 23:41 31.32834 -76.97378 43152 ft 456 kts 308°
2026-05-03 23:41 31.37647 -77.02177 43149 ft 452 kts 306°
2026-05-03 23:42 31.42340 -77.07089 43186 ft 454 kts 307°
2026-05-03 23:42 31.47068 -77.12025 43153 ft 456 kts 306°
2026-05-03 23:43 31.51794 -77.16980 43152 ft 456 kts 306°
2026-05-03 23:43 31.56516 -77.21947 43154 ft 456 kts 306°
2026-05-03 23:44 31.61259 -77.26927 43147 ft 459 kts 306°
2026-05-03 23:44 31.66017 -77.31919 43146 ft 459 kts 306°
2026-05-03 23:45 31.70764 -77.36926 43143 ft 458 kts 306°
2026-05-03 23:45 31.75521 -77.41942 43152 ft 461 kts 307°
2026-05-03 23:46 31.80291 -77.46981 43154 ft 461 kts 306°
2026-05-03 23:46 31.85056 -77.52025 43154 ft 461 kts 306°
2026-05-03 23:47 31.89822 -77.57070 43156 ft 461 kts 306°
2026-05-03 23:47 31.94593 -77.62140 43149 ft 463 kts 305°
2026-05-03 23:48 31.99373 -77.67214 43144 ft 463 kts 305°
2026-05-03 23:48 32.04158 -77.72313 43157 ft 465 kts 306°
2026-05-03 23:49 32.08961 -77.77427 43146 ft 465 kts 306°
2026-05-03 23:49 32.13756 -77.82550 43143 ft 465 kts 305°
2026-05-03 23:50 32.17342 -77.87119 43180 ft 451 kts 296°
2026-05-03 23:50 32.19641 -77.91189 43179 ft 440 kts 289°
2026-05-03 23:50 32.21010 -77.94386 43178 ft 433 kts 284°
2026-05-03 23:51 32.23214 -78.00990 43145 ft 433 kts 281°
2026-05-03 23:51 32.25419 -78.07610 43147 ft 433 kts 281°
2026-05-03 23:52 32.27594 -78.14249 43142 ft 433 kts 281°
2026-05-03 23:52 32.29769 -78.20841 43146 ft 433 kts 281°
2026-05-03 23:53 32.31957 -78.27524 43143 ft 433 kts 281°
2026-05-03 23:53 32.34133 -78.34169 43144 ft 433 kts 281°
2026-05-03 23:54 32.36317 -78.40771 43154 ft 434 kts 283°
2026-05-03 23:54 32.37406 -78.44095 43002 ft 436 kts 283°
2026-05-03 23:54 32.38493 -78.47462 42400 ft 437 kts 283°
2026-05-03 23:55 32.39581 -78.50798 41829 ft 433 kts 283°
2026-05-03 23:55 32.40665 -78.54106 41259 ft 430 kts 282°
2026-05-03 23:55 32.41737 -78.57400 40691 ft 428 kts 282°
2026-05-03 23:55 32.42800 -78.60684 40131 ft 427 kts 281°
2026-05-03 23:56 32.43860 -78.63954 39569 ft 426 kts 281°
2026-05-03 23:56 32.44922 -78.67223 39005 ft 424 kts 281°
2026-05-03 23:56 32.45978 -78.70484 38399 ft 426 kts 281°
2026-05-03 23:56 32.47038 -78.73780 37841 ft 431 kts 281°
2026-05-03 23:57 32.48114 -78.77113 37269 ft 435 kts 282°
2026-05-03 23:57 32.49204 -78.80478 36696 ft 439 kts 282°
2026-05-03 23:57 32.50299 -78.83868 36117 ft 443 kts 282°
2026-05-03 23:57 32.51401 -78.87295 35534 ft 447 kts 283°
2026-05-03 23:58 32.52514 -78.90756 34948 ft 451 kts 283°
2026-05-03 23:58 32.53637 -78.94247 34353 ft 455 kts 283°
2026-05-03 23:58 32.54767 -78.97763 33769 ft 458 kts 284°
2026-05-03 23:58 32.55900 -79.01294 33165 ft 459 kts 284°
2026-05-03 23:59 32.57036 -79.04842 32557 ft 461 kts 284°
2026-05-03 23:59 32.58174 -79.08400 31946 ft 464 kts 284°
2026-05-03 23:59 32.59318 -79.11978 31333 ft 465 kts 285°
2026-05-03 23:59 32.60467 -79.15576 30713 ft 467 kts 285°
2026-05-04 00:00 32.61618 -79.19181 30077 ft 468 kts 285°
2026-05-04 00:00 32.62770 -79.22804 29442 ft 471 kts 285°
2026-05-04 00:00 32.63930 -79.26450 28817 ft 475 kts 285°
2026-05-04 00:00 32.65054 -79.29947 28224 ft 434 kts 285°
2026-05-04 00:01 32.66104 -79.33241 27667 ft 430 kts 285°
2026-05-04 00:01 32.67144 -79.36591 27099 ft 436 kts 285°
2026-05-04 00:01 32.68203 -79.39945 26519 ft 432 kts 285°
2026-05-04 00:01 32.69269 -79.43269 25964 ft 430 kts 286°
2026-05-04 00:02 32.70323 -79.46593 25394 ft 429 kts 286°
2026-05-04 00:02 32.71360 -79.49901 24833 ft 426 kts 286°
2026-05-04 00:02 32.72044 -79.52079 24479 ft 425 kts 287°
2026-05-04 00:02 32.73078 -79.55355 23905 ft 422 kts 287°
2026-05-04 00:03 32.74142 -79.58593 23303 ft 420 kts 289°
2026-05-04 00:03 32.75251 -79.61794 22753 ft 418 kts 288°
2026-05-04 00:03 32.76317 -79.64999 22204 ft 415 kts 288°
2026-05-04 00:03 32.77383 -79.68177 21661 ft 413 kts 289°
2026-05-04 00:04 32.78463 -79.71327 21115 ft 411 kts 289°
2026-05-04 00:04 32.79536 -79.74466 20577 ft 408 kts 289°
2026-05-04 00:04 32.80588 -79.77588 20033 ft 406 kts 289°
2026-05-04 00:04 32.81635 -79.80696 19512 ft 407 kts 289°
2026-05-04 00:05 32.82693 -79.83816 18977 ft 405 kts 289°
2026-05-04 00:05 32.83746 -79.86919 18445 ft 403 kts 289°
2026-05-04 00:05 32.84789 -79.90005 17884 ft 400 kts 289°
2026-05-04 00:05 32.85822 -79.93069 17305 ft 399 kts 289°
2026-05-04 00:06 32.86848 -79.96113 16718 ft 394 kts 290°
2026-05-04 00:06 32.87866 -79.99129 16196 ft 392 kts 290°
2026-05-04 00:06 32.88690 -80.02200 15660 ft 388 kts 279°
2026-05-04 00:06 32.88819 -80.05378 15163 ft 385 kts 266°
2026-05-04 00:07 32.88313 -80.08390 14680 ft 357 kts 255°
2026-05-04 00:07 32.87639 -80.11112 14236 ft 331 kts 254°
2026-05-04 00:07 32.87023 -80.13663 13802 ft 311 kts 255°
2026-05-04 00:07 32.86448 -80.16060 13383 ft 293 kts 255°
2026-05-04 00:08 32.85896 -80.18330 13006 ft 278 kts 255°
2026-05-04 00:08 32.85371 -80.20483 12650 ft 265 kts 256°
2026-05-04 00:08 32.84866 -80.22564 12305 ft 259 kts 256°
2026-05-04 00:08 32.84367 -80.24611 11968 ft 257 kts 256°
2026-05-04 00:09 32.83870 -80.26652 11626 ft 257 kts 256°
2026-05-04 00:09 32.83374 -80.28689 11296 ft 257 kts 256°
2026-05-04 00:09 32.82879 -80.30721 10959 ft 256 kts 256°
2026-05-04 00:09 32.82383 -80.32752 10621 ft 255 kts 256°
2026-05-04 00:10 32.81888 -80.34779 10286 ft 255 kts 257°
2026-05-04 00:10 32.81394 -80.36798 9942 ft 254 kts 257°
2026-05-04 00:10 32.80903 -80.38808 9584 ft 252 kts 257°
2026-05-04 00:10 32.80415 -80.40799 9256 ft 251 kts 257°
2026-05-04 00:11 32.79927 -80.42791 8920 ft 250 kts 256°
2026-05-04 00:11 32.79441 -80.44773 8590 ft 249 kts 256°
2026-05-04 00:11 32.78957 -80.46740 8267 ft 248 kts 256°
2026-05-04 00:11 32.78477 -80.48701 7936 ft 246 kts 256°
2026-05-04 00:12 32.78002 -80.50642 7613 ft 245 kts 256°
2026-05-04 00:12 32.77524 -80.52589 7295 ft 244 kts 256°
2026-05-04 00:12 32.77050 -80.54508 6974 ft 241 kts 256°
2026-05-04 00:12 32.76580 -80.56416 6657 ft 241 kts 256°
2026-05-04 00:13 32.76110 -80.58321 6324 ft 240 kts 255°
2026-05-04 00:13 32.75642 -80.60222 6004 ft 240 kts 255°
2026-05-04 00:13 32.75176 -80.62107 5694 ft 238 kts 255°
2026-05-04 00:13 32.74710 -80.63994 5359 ft 235 kts 254°
2026-05-04 00:14 32.74267 -80.65817 5067 ft 225 kts 255°
2026-05-04 00:14 32.73829 -80.67567 4777 ft 218 kts 255°
2026-05-04 00:14 32.73398 -80.69289 4494 ft 218 kts 255°
2026-05-04 00:14 32.72973 -80.71001 4204 ft 214 kts 254°
2026-05-04 00:15 32.72394 -80.72611 3863 ft 215 kts 234°
2026-05-04 00:15 32.71285 -80.73760 3882 ft 209 kts 220°
2026-05-04 00:15 32.70142 -80.74856 3993 ft 212 kts 221°
2026-05-04 00:15 32.68990 -80.75984 4008 ft 216 kts 221°
2026-05-04 00:16 32.67827 -80.77111 4014 ft 210 kts 220°
2026-05-04 00:16 32.66766 -80.78138 3942 ft 187 kts 221°
2026-05-04 00:16 32.65732 -80.79130 3247 ft 198 kts 221°
2026-05-04 00:16 32.64675 -80.80146 2616 ft 187 kts 218°
2026-05-04 00:17 32.63730 -80.81060 2553 ft 167 kts 218°
2026-05-04 00:17 32.62845 -80.81914 2514 ft 169 kts 218°
2026-05-04 00:17 32.61921 -80.82803 2389 ft 172 kts 218°
2026-05-04 00:17 32.60997 -80.83693 2237 ft 169 kts 218°
2026-05-04 00:18 32.60003 -80.84401 2060 ft 167 kts 197°
2026-05-04 00:18 32.58864 -80.84495 1976 ft 163 kts 172°
2026-05-04 00:18 32.57829 -80.84013 1982 ft 162 kts 148°
2026-05-04 00:18 32.56984 -80.83088 1898 ft 164 kts 137°
2026-05-04 00:19 32.56203 -80.82170 1758 ft 152 kts 139°
2026-05-04 00:19 32.55460 -80.81310 1613 ft 146 kts 138°
2026-05-04 00:19 32.54753 -80.80463 1476 ft 143 kts 137°
2026-05-04 00:19 32.54068 -80.79642 1384 ft 137 kts 138°
2026-05-04 00:20 32.53409 -80.78874 1230 ft 131 kts 139°
2026-05-04 00:20 32.52775 -80.78156 1156 ft 121 kts 139°
2026-05-04 00:20 32.52185 -80.77484 1094 ft 118 kts 139°
2026-05-04 00:20 32.51590 -80.76802 957 ft 120 kts 138°
2026-05-04 00:21 32.50979 -80.76094 805 ft 125 kts 137°
2026-05-04 00:21 32.50347 -80.75366 613 ft 128 kts 137°
2026-05-04 00:21 32.49719 -80.74612 417 ft 127 kts 134°
2026-05-04 00:21 32.49105 -80.73880 277 ft 125 kts 140°
2026-05-04 00:22 32.48482 -80.73160 106 ft 125 kts 138°
2026-05-04 00:22 32.47893 -80.72479 35 ft 102 kts 135°
2026-05-04 00:22 32.47521 -80.72040 30 ft 61 kts 136°
2026-05-04 00:22 32.47356 -80.71850 29 ft 14 kts 141°
2026-05-04 00:23 32.47290 -80.71858 29 ft 8 kts 230°
2026-05-04 00:23 32.47254 -80.71898 29 ft 7 kts 224°
2026-05-04 00:23 32.47222 -80.71936 29 ft 7 kts 225°
2026-05-04 00:23 32.47178 -80.71984 29 ft 9 kts 206°
2026-05-04 00:24 32.47123 -80.71984 29 ft 7 kts 185°
2026-05-04 00:24 32.47113 -80.72013 29 ft 4 kts 283°
2026-05-04 00:24 32.47124 -80.72027 29 ft 0 kts 315°